TimeEST,TemperatureF,Dew PointF,Humidity,Sea Level PressureIn,VisibilityMPH,Wind Direction,Wind SpeedMPH,Gust SpeedMPH,PrecipitationIn,Events,Conditions,WindDirDegrees,DateUTC
12:54 AM,35.1,33.1,92,29.84,-9999.0,Calm,Calm,-,N/A,,Unknown,0,2013-02-24 05:54:00
1:54 AM,35.1,33.1,92,29.84,-9999.0,Calm,Calm,-,N/A,,Unknown,0,2013-02-24 06:54:00
2:54 AM,35.1,33.1,92,29.82,-9999.0,Calm,Calm,-,N/A,,Unknown,0,2013-02-24 07:54:00
3:54 AM,35.1,33.1,92,29.83,-9999.0,Calm,Calm,-,N/A,,Unknown,0,2013-02-24 08:54:00
4:54 AM,35.1,33.1,92,29.81,-9999.0,Variable,3.5,-,N/A,,Unknown,0,2013-02-24 09:54:00
5:54 AM,34.0,33.1,96,29.80,-9999.0,Calm,Calm,-,N/A,,Unknown,0,2013-02-24 10:54:00
6:54 AM,34.0,32.0,92,29.81,-9999.0,Calm,Calm,-,N/A,,Unknown,0,2013-02-24 11:54:00
7:54 AM,36.0,34.0,93,29.81,-9999.0,Calm,Calm,-,N/A,,Unknown,0,2013-02-24 12:54:00
8:54 AM,37.9,35.1,89,29.81,-9999.0,Calm,Calm,-,N/A,,Unknown,0,2013-02-24 13:54:00
9:54 AM,41.0,34.0,76,29.80,-9999.0,North,5.8,-,N/A,,Unknown,360,2013-02-24 14:54:00
10:54 AM,43.0,30.9,62,29.81,-9999.0,Variable,6.9,-,N/A,,Unknown,0,2013-02-24 15:54:00
11:54 AM,43.0,28.0,56,29.80,-9999.0,NNW,8.1,-,N/A,,Unknown,340,2013-02-24 16:54:00
12:54 PM,42.1,28.0,58,29.80,-9999.0,Calm,Calm,-,N/A,,Unknown,0,2013-02-24 17:54:00
1:54 PM,39.9,27.0,60,29.81,-9999.0,NNW,8.1,17.3,N/A,,Unknown,340,2013-02-24 18:54:00
2:54 PM,37.9,27.0,65,29.81,-9999.0,Variable,6.9,17.3,N/A,,Unknown,0,2013-02-24 19:54:00
3:54 PM,35.1,24.1,64,29.86,-9999.0,Variable,6.9,20.7,N/A,,Unknown,0,2013-02-24 20:54:00
4:54 PM,36.0,21.0,55,29.88,-9999.0,Variable,5.8,-,N/A,,Unknown,0,2013-02-24 21:54:00
5:54 PM,34.0,19.9,56,29.91,-9999.0,Variable,5.8,-,N/A,,Unknown,0,2013-02-24 22:54:00
6:54 PM,33.1,23.0,66,29.95,-9999.0,Variable,5.8,18.4,N/A,,Unknown,0,2013-02-24 23:54:00
7:54 PM,32.0,21.9,66,29.98,-9999.0,Variable,5.8,-,N/A,,Unknown,0,2013-02-25 00:54:00
8:54 PM,32.0,19.9,61,29.99,-9999.0,NW,8.1,18.4,N/A,,Unknown,320,2013-02-25 01:54:00
9:54 PM,30.9,19.0,61,30.00,-9999.0,Variable,5.8,-,N/A,,Unknown,0,2013-02-25 02:54:00
10:54 PM,30.9,19.0,61,30.00,-9999.0,North,4.6,-,N/A,,Unknown,350,2013-02-25 03:54:00
11:54 PM,30.9,19.0,61,30.00,-9999.0,NNW,4.6,-,N/A,,Unknown,330,2013-02-25 04:54:00